FW9692 Weather Reports


time (UTC)temp
C
wind
direction
speed
KPH
gust
KPH
rain 1hr
cm
rain 24hr
cm
rain mn
cm
humidity
%
barometer
mb
20260506073020 -17 0.0 0.0 0.00 0.00 0.00 997.9
20260506071511 -17 0.0 0.0 0.00 0.00 0.00 997.8
20260506061516 21 244 12.9 17.7 0.00 0.00 0.00 42 997.6
20260506044508 23 270 6.4 12.9 0.00 0.00 0.00 36 997.1
20260506043008 22 225 4.8 8.0 0.00 0.00 0.00 37 996.9
20260506041507 22 229 4.8 11.3 0.00 0.00 0.00 36 996.7
20260506040006 23 284 11.3 14.5 0.00 0.00 0.00 35 996.6
20260506034504 23 286 9.7 12.9 0.00 0.00 0.00 35 996.6
20260506033004 23 294 6.4 14.5 0.00 0.00 0.00 35 996.2
20260506031505 23 307 11.3 19.3 0.00 0.00 0.00 35 996.0
20260506030001 23 312 19.3 25.7 0.00 0.00 0.00 34 995.8
20260506024605 23 309 19.3 25.7 0.00 0.00 0.00 33 995.6
20260506023109 24 319 19.3 24.1 0.00 0.00 0.00 32 995.5
20260506021617 25 329 14.5 19.3 0.00 0.00 0.00 30 995.5
20260506020057 25 319 4.8 9.7 0.00 0.00 0.00 28 995.4
20260506014504 26 324 6.4 14.5 0.00 0.00 0.00 27 995.2
20260506013003 26 334 3.2 6.4 0.00 0.00 0.00 26 995.1
20260506011503 26 195 4.8 14.5 0.00 0.00 0.00 25 994.8
20260506010003 26 186 11.3 12.9 0.00 0.00 0.00 26 994.8
20260506004553 26 182 14.5 16.1 0.00 0.00 0.00 25 994.9
20260506003054 27 209 12.9 22.5 0.00 0.00 0.00 25 994.8
20260506001554 27 223 16.1 25.7 0.00 0.00 0.00 25 994.8
20260506000050 27 221 16.1 29.0 0.00 0.00 0.00 24 994.8
20260505234559 27 208 8.0 17.7 0.00 0.00 0.00 25 995.0
20260505233104 26 280 11.3 22.5 0.00 0.00 0.00 25 995.1
20260505231611 26 259 25.7 32.2 0.00 0.00 0.00 25 995.3
20260505230055 26 232 16.1 24.1 0.00 0.00 0.00 25 995.4
20260505224544 26 259 22.5 35.4 0.00 0.00 0.00 26 995.6
20260505223043 26 250 22.5 32.2 0.00 0.00 0.00 26 996.0
20260505221545 25 267 30.6 40.2 0.00 0.00 0.00 26 995.9
20260505220045 25 266 32.2 41.8 0.00 0.00 0.00 26 996.1
20260505214556 25 288 25.7 41.8 0.00 0.00 0.00 26 996.5
20260505213047 25 261 35.4 49.9 0.00 0.00 0.00 25 996.6
20260505211546 25 292 40.2 53.1 0.00 0.00 0.00 25 996.9
20260505210047 25 284 43.5 51.5 0.00 0.00 0.00 24 996.7
20260505204556 26 279 32.2 46.7 0.00 0.00 0.00 24 997.0
20260505203114 26 280 33.8 53.1 0.00 0.00 0.00 24 997.0
20260505201600 26 270 29.0 49.9 0.00 0.00 0.00 26 996.9
20260505200054 25 279 33.8 46.7 0.00 0.00 0.00 26 997.0
20260505194557 25 271 33.8 43.5 0.00 0.00 0.00 27 997.2
20260505193056 25 288 32.2 46.7 0.00 0.00 0.00 28 997.1
20260505191608 25 290 35.4 45.1 0.00 0.00 0.00 27 997.1
20260505190053 24 252 33.8 43.5 0.00 0.00 0.00 30 997.2
20260505184552 24 259 35.4 53.1 0.00 0.00 0.00 30 997.2
20260505183051 24 259 37.0 54.7 0.00 0.00 0.00 30 997.4
20260505181552 24 279 40.2 54.7 0.00 0.00 0.00 31 997.7
20260505180053 25 269 33.8 49.9 0.00 0.00 0.00 31 997.9
20260505174552 24 302 30.6 41.8 0.00 0.00 0.00 31 998.0
20260505173055 24 286 30.6 45.1 0.00 0.00 0.00 31 998.0
20260505171550 23 291 32.2 41.8 0.00 0.00 0.00 31 998.0
20260505170104 23 317 33.8 48.3 0.00 0.00 0.00 30 998.1
20260505164547 23 286 38.6 49.9 0.00 0.00 0.00 31 997.9
20260505163044 23 275 37.0 45.1 0.00 0.00 0.00 29 997.9
20260505161542 23 290 40.2 48.3 0.00 0.00 0.00 29 997.8
20260505153036 22 280 32.2 46.7 0.00 0.00 0.00 29 997.4
20260505151549 22 277 38.6 49.9 0.00 0.00 0.00 29 997.2
20260505124510 20 230 22.5 25.7 0.00 0.00 0.00 33 996.1
20260505123004 20 229 20.9 24.1 0.00 0.00 0.00 33 995.9
20260505121503 20 227 20.9 24.1 0.00 0.00 0.00 32 995.8
20260505120100 20 217 20.9 25.7 0.00 0.00 0.00 30 995.8
20260505114558 20 212 19.3 22.5 0.00 0.00 0.00 31 995.5
20260505113057 21 200 16.1 17.7 0.00 0.00 0.00 30 995.4
20260505111559 21 205 17.7 19.3 0.00 0.00 0.00 27 995.4
20260505101601 20 252 16.1 22.5 0.00 0.00 0.00 32 995.2
20260505094546 21 250 19.3 22.5 0.00 0.00 0.00 31 995.2
20260505093046 21 252 20.9 24.1 0.00 0.00 0.00 31 995.3
20260505091545 21 232 20.9 27.4 0.00 0.00 0.00 32 995.3
20260505090055 22 245 22.5 27.4 0.00 0.00 0.00 31 995.2
20260505084548 22 259 22.5 27.4 0.00 0.00 0.00 29 995.1
20260505083039 23 242 19.3 24.1 0.00 0.00 0.00 30 995.2
20260505081543 23 238 20.9 25.7 0.00 0.00 0.00 28 995.2